Wetterdaten: Freitag, 04.09.2015
Datum Zeit Temp. A. Feuchte A. Luftdruck Regen Wind Richtung Richtung Sonnenschein ET UV Solar Taupunkt Windchill Windben Empfang
04.09.2015 00:00 12,9 C 99 % 1015,1 hPa 0,3 l/m 1,4 km/h (1 Bft) NW 312 0 min 0,000 mm 0,0 UV-I 0 W/m 12,7 C 12,9 C 4,0 km/h (1 Bft) 0,00 %
04.09.2015 00:05 12,9 C 99 % 1014,9 hPa 0,0 l/m 0,7 km/h (0 Bft) O-SO 102 0 min 0,000 mm 0,0 UV-I 0 W/m 12,7 C 12,9 C 4,0 km/h (1 Bft) 0,00 %
04.09.2015 00:10 12,8 C 99 % 1015,1 hPa 0,3 l/m 0,0 km/h (0 Bft) NO 55 0 min 0,000 mm 0,0 UV-I 0 W/m 12,6 C 12,8 C 0,0 km/h (0 Bft) 0,00 %
04.09.2015 00:15 12,8 C 99 % 1014,9 hPa 0,0 l/m 0,0 km/h (0 Bft) O-NO 75 0 min 0,000 mm 0,0 UV-I 0 W/m 12,6 C 12,8 C 0,0 km/h (0 Bft) 0,00 %
04.09.2015 00:20 12,8 C 99 % 1015,1 hPa 0,0 l/m 0,0 km/h (0 Bft) O-NO 57 0 min 0,000 mm 0,0 UV-I 0 W/m 12,6 C 12,8 C 0,0 km/h (0 Bft) 0,00 %
04.09.2015 00:25 12,7 C 99 % 1015,0 hPa 0,0 l/m 0,0 km/h (0 Bft) NO 47 0 min 0,000 mm 0,0 UV-I 0 W/m 12,5 C 12,7 C 0,0 km/h (0 Bft) 0,00 %
04.09.2015 00:30 12,7 C 99 % 1015,2 hPa 0,0 l/m 0,0 km/h (0 Bft) N-NW 347 0 min 0,000 mm 0,0 UV-I 0 W/m 12,5 C 12,7 C 0,0 km/h (0 Bft) 0,00 %
04.09.2015 00:35 12,6 C 99 % 1015,1 hPa 0,0 l/m 0,7 km/h (0 Bft) N-NW 346 0 min 0,000 mm 0,0 UV-I 0 W/m 12,4 C 12,6 C 4,0 km/h (1 Bft) 0,00 %
04.09.2015 00:40 12,6 C 99 % 1015,3 hPa 0,0 l/m 0,0 km/h (0 Bft) W-SW 255 0 min 0,000 mm 0,0 UV-I 0 W/m 12,4 C 12,6 C 0,0 km/h (0 Bft) 0,00 %
04.09.2015 00:45 12,7 C 99 % 1015,2 hPa 0,0 l/m 1,4 km/h (1 Bft) N 358 0 min 0,000 mm 0,0 UV-I 0 W/m 12,5 C 12,7 C 4,0 km/h (1 Bft) 0,00 %
04.09.2015 00:50 12,6 C 99 % 1015,2 hPa 0,0 l/m 2,9 km/h (1 Bft) W-SW 237 0 min 0,000 mm 0,0 UV-I 0 W/m 12,4 C 12,6 C 4,0 km/h (1 Bft) 0,00 %
04.09.2015 00:55 12,6 C 99 % 1015,1 hPa 0,3 l/m 4,3 km/h (1 Bft) W-SW 257 0 min 0,000 mm 0,0 UV-I 0 W/m 12,4 C 12,6 C 7,9 km/h (2 Bft) 0,00 %
04.09.2015 01:00 12,5 C 99 % 1015,2 hPa 0,0 l/m 1,8 km/h (1 Bft) S 177 0 min 0,000 mm 0,0 UV-I 0 W/m 12,3 C 12,5 C 4,0 km/h (1 Bft) 0,00 %
04.09.2015 01:05 12,5 C 99 % 1015,1 hPa 0,0 l/m 4,0 km/h (1 Bft) W-SW 256 0 min 0,000 mm 0,0 UV-I 0 W/m 12,3 C 12,5 C 7,9 km/h (2 Bft) 0,00 %
04.09.2015 01:10 12,5 C 99 % 1015,3 hPa 0,0 l/m 0,7 km/h (0 Bft) NW 324 0 min 0,000 mm 0,0 UV-I 0 W/m 12,3 C 12,5 C 4,0 km/h (1 Bft) 0,00 %
04.09.2015 01:15 12,5 C 99 % 1015,4 hPa 0,0 l/m 2,9 km/h (1 Bft) W-NW 290 0 min 0,000 mm 0,0 UV-I 0 W/m 12,3 C 12,5 C 4,0 km/h (1 Bft) 0,00 %
04.09.2015 01:20 12,5 C 99 % 1015,3 hPa 0,0 l/m 0,4 km/h (0 Bft) O 79 0 min 0,000 mm 0,0 UV-I 0 W/m 12,3 C 12,5 C 4,0 km/h (1 Bft) 0,00 %
04.09.2015 01:25 12,5 C 99 % 1015,3 hPa 0,0 l/m 0,0 km/h (0 Bft) NO 35 0 min 0,000 mm 0,0 UV-I 0 W/m 12,3 C 12,5 C 0,0 km/h (0 Bft) 0,00 %
04.09.2015 01:30 12,5 C 99 % 1015,5 hPa 0,0 l/m 1,8 km/h (1 Bft) N-NW 342 0 min 0,000 mm 0,0 UV-I 0 W/m 12,3 C 12,5 C 4,0 km/h (1 Bft) 0,00 %
04.09.2015 01:35 12,5 C 99 % 1015,4 hPa 0,3 l/m 0,4 km/h (0 Bft) N-NW 333 0 min 0,000 mm 0,0 UV-I 0 W/m 12,3 C 12,5 C 4,0 km/h (1 Bft) 0,00 %
04.09.2015 01:40 12,5 C 99 % 1015,4 hPa 0,0 l/m 2,2 km/h (1 Bft) W-SW 255 0 min 0,000 mm 0,0 UV-I 0 W/m 12,3 C 12,5 C 4,0 km/h (1 Bft) 0,00 %
04.09.2015 01:45 12,5 C 99 % 1015,5 hPa 0,6 l/m 1,4 km/h (1 Bft) N-NW 340 0 min 0,000 mm 0,0 UV-I 0 W/m 12,3 C 12,5 C 4,0 km/h (1 Bft) 0,00 %
04.09.2015 01:50 12,4 C 99 % 1015,4 hPa 0,3 l/m 0,7 km/h (0 Bft) NW 310 0 min 0,000 mm 0,0 UV-I 0 W/m 12,2 C 12,4 C 4,0 km/h (1 Bft) 0,00 %
04.09.2015 01:55 12,3 C 99 % 1015,4 hPa 0,3 l/m 0,4 km/h (0 Bft) N 349 0 min 0,000 mm 0,0 UV-I 0 W/m 12,1 C 12,3 C 4,0 km/h (1 Bft) 0,00 %
04.09.2015 02:00 12,3 C 99 % 1015,4 hPa 0,0 l/m 0,0 km/h (0 Bft) O-SO 105 0 min 0,000 mm 0,0 UV-I 0 W/m 12,1 C 12,3 C 0,0 km/h (0 Bft) 0,00 %
04.09.2015 02:05 12,2 C 99 % 1015,4 hPa 0,3 l/m 0,0 km/h (0 Bft) N-NO 17 0 min 0,000 mm 0,0 UV-I 0 W/m 12,0 C 12,2 C 0,0 km/h (0 Bft) 0,00 %
04.09.2015 02:10 12,2 C 99 % 1015,5 hPa 0,0 l/m 0,0 km/h (0 Bft) N-NW 346 0 min 0,000 mm 0,0 UV-I 0 W/m 12,0 C 12,2 C 0,0 km/h (0 Bft) 0,00 %
04.09.2015 02:15 12,1 C 99 % 1015,5 hPa 0,3 l/m 4,0 km/h (1 Bft) O-SO 110 0 min 0,000 mm 0,0 UV-I 0 W/m 11,9 C 12,1 C 7,9 km/h (2 Bft) 0,00 %
04.09.2015 02:21 12,0 C 99 % 1015,6 hPa 0,3 l/m 0,0 km/h (0 Bft) NO 44 0 min 0,000 mm 0,0 UV-I 0 W/m 11,8 C 12,0 C 0,0 km/h (0 Bft) 0,00 %
04.09.2015 02:26 12,0 C 99 % 1015,5 hPa 0,3 l/m 1,4 km/h (1 Bft) NO 53 0 min 0,000 mm 0,0 UV-I 0 W/m 11,8 C 12,0 C 4,0 km/h (1 Bft) 0,00 %
04.09.2015 02:31 12,0 C 99 % 1015,5 hPa 0,3 l/m 0,0 km/h (0 Bft) O-NO 59 0 min 0,000 mm 0,0 UV-I 0 W/m 11,8 C 12,0 C 0,0 km/h (0 Bft) 0,00 %
04.09.2015 02:36 11,9 C 97 % 1015,7 hPa 0,0 l/m 3,2 km/h (1 Bft) W-NW 301 0 min 0,000 mm 0,0 UV-I 0 W/m 11,4 C 11,9 C 7,9 km/h (2 Bft) 0,00 %
04.09.2015 02:41 11,9 C 97 % 1015,7 hPa 0,3 l/m 4,0 km/h (1 Bft) W-SW 255 0 min 0,000 mm 0,0 UV-I 0 W/m 11,4 C 11,9 C 4,0 km/h (1 Bft) 0,00 %
04.09.2015 02:46 11,9 C 97 % 1015,8 hPa 0,3 l/m 2,9 km/h (1 Bft) W-NW 290 0 min 0,000 mm 0,0 UV-I 0 W/m 11,4 C 11,9 C 4,0 km/h (1 Bft) 0,00 %
04.09.2015 02:51 11,9 C 97 % 1015,7 hPa 0,0 l/m 0,0 km/h (0 Bft) NO 43 0 min 0,000 mm 0,0 UV-I 0 W/m 11,4 C 11,9 C 0,0 km/h (0 Bft) 0,00 %
04.09.2015 02:56 11,9 C 97 % 1015,7 hPa 0,3 l/m 0,0 km/h (0 Bft) W-NW 291 0 min 0,000 mm 0,0 UV-I 0 W/m 11,4 C 11,9 C 0,0 km/h (0 Bft) 0,00 %
04.09.2015 03:01 11,9 C 97 % 1015,6 hPa 0,0 l/m 0,7 km/h (0 Bft) W-NW 295 0 min 0,000 mm 0,0 UV-I 0 W/m 11,4 C 11,9 C 4,0 km/h (1 Bft) 0,00 %
04.09.2015 03:06 11,9 C 97 % 1015,7 hPa 0,3 l/m 0,0 km/h (0 Bft) NO 41 0 min 0,000 mm 0,0 UV-I 0 W/m 11,4 C 11,9 C 0,0 km/h (0 Bft) 0,00 %
04.09.2015 03:11 11,9 C 97 % 1015,7 hPa 0,0 l/m 0,0 km/h (0 Bft) NO 35 0 min 0,000 mm 0,0 UV-I 0 W/m 11,4 C 11,9 C 0,0 km/h (0 Bft) 0,00 %
04.09.2015 03:16 11,9 C 97 % 1016,0 hPa 0,3 l/m 0,0 km/h (0 Bft) N-NO 29 0 min 0,000 mm 0,0 UV-I 0 W/m 11,4 C 11,9 C 0,0 km/h (0 Bft) 0,00 %
04.09.2015 03:21 11,9 C 97 % 1015,8 hPa 0,0 l/m 3,2 km/h (1 Bft) W-SW 252 0 min 0,000 mm 0,0 UV-I 0 W/m 11,4 C 11,9 C 7,9 km/h (2 Bft) 0,00 %
04.09.2015 03:26 11,8 C 97 % 1015,8 hPa 0,3 l/m 0,0 km/h (0 Bft) NO 46 0 min 0,000 mm 0,0 UV-I 0 W/m 11,3 C 11,8 C 0,0 km/h (0 Bft) 0,00 %
04.09.2015 03:31 11,8 C 97 % 1015,9 hPa 0,3 l/m 0,0 km/h (0 Bft) NO 40 0 min 0,000 mm 0,0 UV-I 0 W/m 11,3 C 11,8 C 0,0 km/h (0 Bft) 0,00 %
04.09.2015 03:36 11,8 C 97 % 1015,8 hPa 0,3 l/m 0,0 km/h (0 Bft) NO 50 0 min 0,000 mm 0,0 UV-I 0 W/m 11,3 C 11,8 C 0,0 km/h (0 Bft) 0,00 %
04.09.2015 03:41 11,8 C 97 % 1015,9 hPa 0,0 l/m 0,0 km/h (0 Bft) N 355 0 min 0,000 mm 0,0 UV-I 0 W/m 11,3 C 11,8 C 0,0 km/h (0 Bft) 0,00 %
04.09.2015 03:46 11,7 C 97 % 1016,1 hPa 0,0 l/m 0,4 km/h (0 Bft) NW 323 0 min 0,000 mm 0,0 UV-I 0 W/m 11,2 C 11,7 C 4,0 km/h (1 Bft) 0,00 %
04.09.2015 03:51 11,7 C 97 % 1016,2 hPa 0,3 l/m 5,4 km/h (1 Bft) W-SW 252 0 min 0,000 mm 0,0 UV-I 0 W/m 11,2 C 11,7 C 7,9 km/h (2 Bft) 0,00 %
04.09.2015 03:56 11,7 C 97 % 1016,1 hPa 0,0 l/m 0,0 km/h (0 Bft) W-SW 256 0 min 0,000 mm 0,0 UV-I 0 W/m 11,2 C 11,7 C 0,0 km/h (0 Bft) 0,00 %
04.09.2015 04:01 11,6 C 97 % 1016,1 hPa 0,0 l/m 0,0 km/h (0 Bft) NO 42 0 min 0,000 mm 0,0 UV-I 0 W/m 11,1 C 11,6 C 0,0 km/h (0 Bft) 0,00 %
04.09.2015 04:06 11,6 C 97 % 1015,9 hPa 0,0 l/m 0,0 km/h (0 Bft) NO 53 0 min 0,000 mm 0,0 UV-I 0 W/m 11,1 C 11,6 C 0,0 km/h (0 Bft) 0,00 %
04.09.2015 04:11 11,6 C 97 % 1015,8 hPa 0,0 l/m 0,0 km/h (0 Bft) N 355 0 min 0,000 mm 0,0 UV-I 0 W/m 11,1 C 11,6 C 0,0 km/h (0 Bft) 0,00 %
04.09.2015 04:16 11,6 C 97 % 1015,9 hPa 0,0 l/m 0,0 km/h (0 Bft) NO 55 0 min 0,000 mm 0,0 UV-I 0 W/m 11,1 C 11,6 C 0,0 km/h (0 Bft) 0,00 %
04.09.2015 04:21 11,6 C 97 % 1015,9 hPa 0,0 l/m 0,0 km/h (0 Bft) NO 35 0 min 0,000 mm 0,0 UV-I 0 W/m 11,1 C 11,6 C 0,0 km/h (0 Bft) 0,00 %
04.09.2015 04:26 11,6 C 97 % 1015,9 hPa 0,0 l/m 0,0 km/h (0 Bft) W-SW 256 0 min 0,000 mm 0,0 UV-I 0 W/m 11,1 C 11,6 C 0,0 km/h (0 Bft) 0,00 %
04.09.2015 04:31 11,6 C 97 % 1015,8 hPa 0,0 l/m 0,0 km/h (0 Bft) NO 50 0 min 0,000 mm 0,0 UV-I 0 W/m 11,1 C 11,6 C 0,0 km/h (0 Bft) 0,00 %
04.09.2015 04:36 11,6 C 97 % 1015,8 hPa 0,0 l/m 0,0 km/h (0 Bft) N-NO 32 0 min 0,000 mm 0,0 UV-I 0 W/m 11,1 C 11,6 C 0,0 km/h (0 Bft) 0,00 %
04.09.2015 04:41 11,6 C 97 % 1016,0 hPa 0,0 l/m 0,0 km/h (0 Bft) NO 44 0 min 0,000 mm 0,0 UV-I 0 W/m 11,1 C 11,6 C 0,0 km/h (0 Bft) 0,00 %
04.09.2015 04:46 11,6 C 97 % 1015,9 hPa 0,0 l/m 0,0 km/h (0 Bft) NO 42 0 min 0,000 mm 0,0 UV-I 0 W/m 11,1 C 11,6 C 0,0 km/h (0 Bft) 0,00 %
04.09.2015 04:51 11,6 C 97 % 1015,6 hPa 0,0 l/m 0,7 km/h (0 Bft) NW 304 0 min 0,000 mm 0,0 UV-I 0 W/m 11,1 C 11,6 C 4,0 km/h (1 Bft) 0,00 %
04.09.2015 04:56 11,6 C 97 % 1015,8 hPa 0,0 l/m 0,0 km/h (0 Bft) SW 229 0 min 0,000 mm 0,0 UV-I 0 W/m 11,1 C 11,6 C 0,0 km/h (0 Bft) 0,00 %
04.09.2015 05:01 11,6 C 97 % 1015,8 hPa 0,0 l/m 1,4 km/h (1 Bft) W-NW 303 0 min 0,000 mm 0,0 UV-I 0 W/m 11,1 C 11,6 C 4,0 km/h (1 Bft) 0,00 %
04.09.2015 05:06 11,6 C 97 % 1015,4 hPa 0,0 l/m 0,0 km/h (0 Bft) NO 36 0 min 0,000 mm 0,0 UV-I 0 W/m 11,1 C 11,6 C 0,0 km/h (0 Bft) 0,00 %
04.09.2015 05:11 11,6 C 97 % 1015,6 hPa 0,0 l/m 0,0 km/h (0 Bft) N-NO 32 0 min 0,000 mm 0,0 UV-I 0 W/m 11,1 C 11,6 C 0,0 km/h (0 Bft) 0,00 %
04.09.2015 05:16 11,6 C 97 % 1015,7 hPa 0,0 l/m 0,0 km/h (0 Bft) NO 38 0 min 0,000 mm 0,0 UV-I 0 W/m 11,1 C 11,6 C 0,0 km/h (0 Bft) 0,00 %
04.09.2015 05:21 11,5 C 97 % 1015,9 hPa 0,0 l/m 0,0 km/h (0 Bft) NO 44 0 min 0,000 mm 0,0 UV-I 0 W/m 11,0 C 11,5 C 0,0 km/h (0 Bft) 0,00 %
04.09.2015 05:26 11,5 C 97 % 1015,8 hPa 0,0 l/m 0,0 km/h (0 Bft) N-NW 346 0 min 0,000 mm 0,0 UV-I 0 W/m 11,0 C 11,5 C 0,0 km/h (0 Bft) 0,00 %
04.09.2015 05:31 11,5 C 97 % 1015,9 hPa 0,0 l/m 0,0 km/h (0 Bft) W-SW 256 0 min 0,000 mm 0,0 UV-I 0 W/m 11,0 C 11,5 C 0,0 km/h (0 Bft) 0,00 %
04.09.2015 05:36 11,6 C 97 % 1015,8 hPa 0,0 l/m 0,0 km/h (0 Bft) NO 54 0 min 0,000 mm 0,0 UV-I 0 W/m 11,1 C 11,6 C 0,0 km/h (0 Bft) 0,00 %
04.09.2015 05:41 11,6 C 97 % 1015,5 hPa 0,0 l/m 0,0 km/h (0 Bft) NO 39 0 min 0,000 mm 0,0 UV-I 0 W/m 11,1 C 11,6 C 0,0 km/h (0 Bft) 0,00 %
04.09.2015 05:46 11,6 C 97 % 1015,8 hPa 0,0 l/m 0,0 km/h (0 Bft) NO 40 0 min 0,000 mm 0,0 UV-I 0 W/m 11,1 C 11,6 C 0,0 km/h (0 Bft) 0,00 %
04.09.2015 05:51 11,6 C 97 % 1015,8 hPa 0,0 l/m 0,0 km/h (0 Bft) NO 55 0 min 0,000 mm 0,0 UV-I 0 W/m 11,1 C 11,6 C 0,0 km/h (0 Bft) 0,00 %
04.09.2015 05:56 11,6 C 97 % 1015,6 hPa 0,0 l/m 0,0 km/h (0 Bft) NO 46 0 min 0,000 mm 0,0 UV-I 0 W/m 11,1 C 11,6 C 0,0 km/h (0 Bft) 0,00 %
04.09.2015 06:01 11,6 C 97 % 1015,6 hPa 0,0 l/m 0,0 km/h (0 Bft) NO 42 0 min 0,000 mm 0,0 UV-I 0 W/m 11,1 C 11,6 C 0,0 km/h (0 Bft) 0,00 %
04.09.2015 06:06 11,6 C 97 % 1015,7 hPa 0,0 l/m 0,0 km/h (0 Bft) NO 42 0 min 0,000 mm 0,0 UV-I 0 W/m 11,1 C 11,6 C 0,0 km/h (0 Bft) 0,00 %
04.09.2015 06:11 11,6 C 97 % 1015,7 hPa 0,0 l/m 0,0 km/h (0 Bft) N 356 0 min 0,000 mm 0,0 UV-I 0 W/m 11,1 C 11,6 C 0,0 km/h (0 Bft) 0,00 %
04.09.2015 06:16 11,6 C 97 % 1015,7 hPa 0,0 l/m 0,0 km/h (0 Bft) NO 40 0 min 0,000 mm 0,0 UV-I 0 W/m 11,1 C 11,6 C 0,0 km/h (0 Bft) 0,00 %
04.09.2015 06:21 11,6 C 97 % 1015,8 hPa 0,0 l/m 0,0 km/h (0 Bft) NO 36 0 min 0,000 mm 0,0 UV-I 0 W/m 11,1 C 11,6 C 0,0 km/h (0 Bft) 0,00 %
04.09.2015 06:26 11,6 C 97 % 1015,5 hPa 0,0 l/m 0,0 km/h (0 Bft) W-NW 283 0 min 0,000 mm 0,0 UV-I 0 W/m 11,1 C 11,6 C 0,0 km/h (0 Bft) 0,00 %
04.09.2015 06:31 11,6 C 97 % 1015,8 hPa 0,0 l/m 0,0 km/h (0 Bft) N-NO 30 0 min 0,000 mm 0,0 UV-I 0 W/m 11,1 C 11,6 C 0,0 km/h (0 Bft) 0,00 %
04.09.2015 06:36 11,6 C 97 % 1016,0 hPa 0,0 l/m 0,0 km/h (0 Bft) O-NO 75 0 min 0,000 mm 0,0 UV-I 0 W/m 11,1 C 11,6 C 0,0 km/h (0 Bft) 0,00 %
04.09.2015 06:41 11,6 C 97 % 1015,9 hPa 0,0 l/m 0,0 km/h (0 Bft) SO 135 0 min 0,000 mm 0,0 UV-I 0 W/m 11,1 C 11,6 C 0,0 km/h (0 Bft) 0,00 %
04.09.2015 06:46 11,6 C 97 % 1015,8 hPa 0,0 l/m 0,0 km/h (0 Bft) SO 138 0 min 0,000 mm 0,0 UV-I 0 W/m 11,1 C 11,6 C 0,0 km/h (0 Bft) 0,00 %
04.09.2015 06:51 11,6 C 97 % 1015,9 hPa 0,0 l/m 0,0 km/h (0 Bft) SO 138 0 min 0,000 mm 0,0 UV-I 1 W/m 11,1 C 11,6 C 0,0 km/h (0 Bft) 0,00 %
04.09.2015 06:56 11,6 C 97 % 1016,0 hPa 0,0 l/m 0,0 km/h (0 Bft) SO 138 0 min 0,000 mm 0,0 UV-I 3 W/m 11,1 C 11,6 C 0,0 km/h (0 Bft) 0,00 %
04.09.2015 07:01 11,6 C 97 % 1016,1 hPa 0,0 l/m 0,0 km/h (0 Bft) NO 41 0 min 0,000 mm 0,0 UV-I 6 W/m 11,1 C 11,6 C 0,0 km/h (0 Bft) 0,00 %
04.09.2015 07:06 11,6 C 97 % 1015,9 hPa 0,0 l/m 0,0 km/h (0 Bft) NO 36 0 min 0,000 mm 0,0 UV-I 19 W/m 11,1 C 11,6 C 0,0 km/h (0 Bft) 0,00 %
04.09.2015 07:11 11,7 C 97 % 1015,8 hPa 0,0 l/m 0,0 km/h (0 Bft) NO 37 0 min 0,000 mm 0,0 UV-I 27 W/m 11,2 C 11,7 C 0,0 km/h (0 Bft) 0,00 %
04.09.2015 07:16 11,7 C 97 % 1016,0 hPa 0,0 l/m 0,0 km/h (0 Bft) N-NO 29 0 min 0,000 mm 0,0 UV-I 33 W/m 11,2 C 11,7 C 0,0 km/h (0 Bft) 0,00 %
04.09.2015 07:21 11,8 C 97 % 1016,0 hPa 0,0 l/m 0,0 km/h (0 Bft) NO 34 0 min 0,000 mm 0,0 UV-I 38 W/m 11,3 C 11,8 C 0,0 km/h (0 Bft) 0,00 %
04.09.2015 07:26 11,9 C 99 % 1016,1 hPa 0,0 l/m 0,0 km/h (0 Bft) N-NO 30 0 min 0,000 mm 0,0 UV-I 36 W/m 11,7 C 11,9 C 0,0 km/h (0 Bft) 0,00 %
04.09.2015 07:31 11,9 C 99 % 1016,0 hPa 0,0 l/m 0,0 km/h (0 Bft) NO 39 0 min 0,000 mm 0,0 UV-I 38 W/m 11,7 C 11,9 C 0,0 km/h (0 Bft) 0,00 %
04.09.2015 07:36 12,0 C 99 % 1016,1 hPa 0,0 l/m 0,0 km/h (0 Bft) NO 35 0 min 0,000 mm 0,0 UV-I 28 W/m 11,8 C 12,0 C 0,0 km/h (0 Bft) 0,00 %
04.09.2015 07:41 12,0 C 99 % 1016,3 hPa 0,0 l/m 0,0 km/h (0 Bft) N-NO 31 0 min 0,000 mm 0,0 UV-I 33 W/m 11,8 C 12,0 C 0,0 km/h (0 Bft) 0,00 %
04.09.2015 07:46 12,0 C 99 % 1016,2 hPa 0,0 l/m 0,0 km/h (0 Bft) N 356 0 min 0,000 mm 0,0 UV-I 56 W/m 11,8 C 12,0 C 0,0 km/h (0 Bft) 0,00 %
04.09.2015 07:51 12,1 C 99 % 1016,4 hPa 0,0 l/m 0,0 km/h (0 Bft) N 356 0 min 0,000 mm 0,0 UV-I 72 W/m 11,9 C 12,1 C 0,0 km/h (0 Bft) 0,00 %
04.09.2015 07:56 12,2 C 99 % 1016,4 hPa 0,0 l/m 0,0 km/h (0 Bft) N-NO 32 0 min 0,000 mm 0,0 UV-I 88 W/m 12,0 C 12,2 C 0,0 km/h (0 Bft) 0,00 %
04.09.2015 08:01 12,2 C 99 % 1016,3 hPa 0,0 l/m 0,0 km/h (0 Bft) NO 43 0 min 0,000 mm 0,0 UV-I 78 W/m 12,0 C 12,2 C 0,0 km/h (0 Bft) 0,00 %
04.09.2015 08:06 12,4 C 99 % 1016,4 hPa 0,0 l/m 0,0 km/h (0 Bft) NO 44 0 min 0,000 mm 0,0 UV-I 83 W/m 12,2 C 12,4 C 0,0 km/h (0 Bft) 0,00 %
04.09.2015 08:11 12,5 C 99 % 1016,4 hPa 0,0 l/m 0,0 km/h (0 Bft) NO 42 0 min 0,000 mm 1,0 UV-I 94 W/m 12,3 C 12,5 C 0,0 km/h (0 Bft) 0,00 %
04.09.2015 08:16 12,6 C 99 % 1016,2 hPa 0,0 l/m 0,0 km/h (0 Bft) N-NO 26 0 min 0,000 mm 1,0 UV-I 113 W/m 12,4 C 12,6 C 0,0 km/h (0 Bft) 0,00 %
04.09.2015 08:21 12,7 C 99 % 1016,2 hPa 0,0 l/m 0,0 km/h (0 Bft) NO 51 0 min 0,000 mm 1,0 UV-I 115 W/m 12,5 C 12,7 C 0,0 km/h (0 Bft) 0,00 %
04.09.2015 08:26 12,8 C 99 % 1016,3 hPa 0,0 l/m 0,0 km/h (0 Bft) O-NO 67 0 min 0,000 mm 1,0 UV-I 124 W/m 12,6 C 12,8 C 0,0 km/h (0 Bft) 0,00 %
04.09.2015 08:31 12,9 C 99 % 1016,2 hPa 0,0 l/m 0,0 km/h (0 Bft) NO 43 0 min 0,000 mm 1,0 UV-I 138 W/m 12,7 C 12,9 C 0,0 km/h (0 Bft) 0,00 %
04.09.2015 08:36 13,1 C 99 % 1016,2 hPa 0,0 l/m 0,0 km/h (0 Bft) NO 49 0 min 0,000 mm 1,0 UV-I 193 W/m 12,9 C 13,1 C 0,0 km/h (0 Bft) 0,00 %
04.09.2015 08:41 13,4 C 99 % 1016,4 hPa 0,0 l/m 0,0 km/h (0 Bft) N 352 0 min 0,000 mm 1,0 UV-I 179 W/m 13,2 C 13,4 C 0,0 km/h (0 Bft) 0,00 %
04.09.2015 08:46 13,6 C 99 % 1016,4 hPa 0,0 l/m 0,0 km/h (0 Bft) NO 45 0 min 0,000 mm 1,0 UV-I 158 W/m 13,4 C 13,6 C 0,0 km/h (0 Bft) 0,00 %
04.09.2015 08:51 13,7 C 99 % 1016,5 hPa 0,0 l/m 0,0 km/h (0 Bft) NO 47 0 min 0,000 mm 1,0 UV-I 163 W/m 13,5 C 13,7 C 0,0 km/h (0 Bft) 0,00 %
04.09.2015 08:56 13,7 C 99 % 1016,4 hPa 0,0 l/m 0,0 km/h (0 Bft) NO 46 0 min 0,000 mm 1,0 UV-I 186 W/m 13,5 C 13,7 C 0,0 km/h (0 Bft) 0,00 %
04.09.2015 09:01 13,9 C 99 % 1016,4 hPa 0,0 l/m 0,0 km/h (0 Bft) N 11 5 min 0,000 mm 1,0 UV-I 232 W/m 13,7 C 13,9 C 0,0 km/h (0 Bft) 0,00 %
04.09.2015 09:06 14,1 C 99 % 1016,6 hPa 0,0 l/m 0,0 km/h (0 Bft) N-NO 27 5 min 0,000 mm 1,0 UV-I 265 W/m 13,9 C 14,1 C 0,0 km/h (0 Bft) 0,00 %
04.09.2015 09:11 14,5 C 98 % 1016,6 hPa 0,0 l/m 0,0 km/h (0 Bft) O-NO 64 5 min 0,000 mm 1,0 UV-I 287 W/m 14,2 C 14,5 C 0,0 km/h (0 Bft) 0,00 %
04.09.2015 09:16 14,9 C 98 % 1016,4 hPa 0,0 l/m 0,0 km/h (0 Bft) NO 45 0 min 0,000 mm 1,0 UV-I 223 W/m 14,6 C 14,9 C 0,0 km/h (0 Bft) 0,00 %
04.09.2015 09:21 15,0 C 98 % 1016,7 hPa 0,0 l/m 0,0 km/h (0 Bft) O-NO 57 0 min 0,000 mm 1,0 UV-I 225 W/m 14,7 C 15,0 C 0,0 km/h (0 Bft) 0,00 %
04.09.2015 09:26 15,1 C 98 % 1016,6 hPa 0,0 l/m 0,0 km/h (0 Bft) N-NO 29 0 min 0,000 mm 1,0 UV-I 209 W/m 14,8 C 15,1 C 0,0 km/h (0 Bft) 0,00 %
04.09.2015 09:31 15,3 C 98 % 1016,8 hPa 0,0 l/m 0,0 km/h (0 Bft) N-NO 32 0 min 0,000 mm 1,0 UV-I 238 W/m 15,0 C 15,3 C 0,0 km/h (0 Bft) 0,00 %
04.09.2015 09:36 15,5 C 98 % 1016,8 hPa 0,0 l/m 0,0 km/h (0 Bft) O-NO 61 0 min 0,000 mm 1,0 UV-I 226 W/m 15,2 C 15,5 C 0,0 km/h (0 Bft) 0,00 %
04.09.2015 09:41 15,5 C 98 % 1016,8 hPa 0,0 l/m 0,0 km/h (0 Bft) N-NO 33 0 min 0,000 mm 1,0 UV-I 208 W/m 15,2 C 15,5 C 0,0 km/h (0 Bft) 0,00 %
04.09.2015 09:46 15,4 C 97 % 1016,9 hPa 0,0 l/m 0,4 km/h (0 Bft) O 93 0 min 0,000 mm 1,0 UV-I 193 W/m 14,9 C 15,4 C 4,0 km/h (1 Bft) 0,00 %
04.09.2015 09:51 15,3 C 97 % 1017,0 hPa 0,0 l/m 1,4 km/h (1 Bft) W-NW 286 0 min 0,000 mm 1,0 UV-I 222 W/m 14,8 C 15,3 C 4,0 km/h (1 Bft) 0,00 %
04.09.2015 09:56 15,2 C 97 % 1016,9 hPa 0,0 l/m 0,7 km/h (0 Bft) W 267 0 min 0,000 mm 1,0 UV-I 229 W/m 14,7 C 15,2 C 4,0 km/h (1 Bft) 0,00 %
04.09.2015 10:01 15,2 C 97 % 1016,8 hPa 0,0 l/m 0,0 km/h (0 Bft) N-NO 14 0 min 0,000 mm 1,0 UV-I 202 W/m 14,7 C 15,2 C 0,0 km/h (0 Bft) 0,00 %
04.09.2015 10:06 15,3 C 97 % 1016,9 hPa 0,0 l/m 0,0 km/h (0 Bft) NO 47 5 min 0,000 mm 2,0 UV-I 388 W/m 14,8 C 15,3 C 0,0 km/h (0 Bft) 0,00 %
04.09.2015 10:11 15,5 C 97 % 1017,0 hPa 0,0 l/m 0,0 km/h (0 Bft) N 354 5 min 0,000 mm 2,0 UV-I 468 W/m 15,0 C 15,5 C 0,0 km/h (0 Bft) 0,00 %
04.09.2015 10:16 15,8 C 95 % 1016,9 hPa 0,0 l/m 2,9 km/h (1 Bft) W-NW 284 5 min 0,000 mm 1,0 UV-I 325 W/m 15,0 C 15,8 C 4,0 km/h (1 Bft) 0,00 %
04.09.2015 10:21 16,3 C 94 % 1017,1 hPa 0,0 l/m 2,2 km/h (1 Bft) NW 317 0 min 0,000 mm 1,0 UV-I 274 W/m 15,3 C 16,3 C 4,0 km/h (1 Bft) 0,00 %
04.09.2015 10:26 16,5 C 92 % 1017,1 hPa 0,0 l/m 0,0 km/h (0 Bft) N-NW 342 0 min 0,000 mm 1,0 UV-I 235 W/m 15,2 C 16,5 C 0,0 km/h (0 Bft) 0,00 %
04.09.2015 10:31 16,2 C 93 % 1017,0 hPa 0,0 l/m 0,0 km/h (0 Bft) W-SW 256 0 min 0,000 mm 1,0 UV-I 236 W/m 15,1 C 16,2 C 0,0 km/h (0 Bft) 0,00 %
04.09.2015 10:36 15,9 C 92 % 1017,2 hPa 0,0 l/m 0,0 km/h (0 Bft) N 0 0 min 0,000 mm 1,0 UV-I 244 W/m 14,6 C 15,9 C 0,0 km/h (0 Bft) 0,00 %
04.09.2015 10:41 15,7 C 93 % 1017,2 hPa 0,0 l/m 0,0 km/h (0 Bft) NO 49 0 min 0,000 mm 1,0 UV-I 250 W/m 14,6 C 15,7 C 0,0 km/h (0 Bft) 0,00 %
04.09.2015 10:46 15,6 C 92 % 1017,2 hPa 0,0 l/m 1,8 km/h (1 Bft) N-NW 330 0 min 0,000 mm 1,0 UV-I 231 W/m 14,3 C 15,6 C 4,0 km/h (1 Bft) 0,00 %
04.09.2015 10:51 15,5 C 92 % 1017,3 hPa 0,0 l/m 0,0 km/h (0 Bft) NO 36 0 min 0,000 mm 1,0 UV-I 233 W/m 14,2 C 15,5 C 0,0 km/h (0 Bft) 0,00 %
04.09.2015 10:56 15,4 C 92 % 1017,3 hPa 0,0 l/m 0,0 km/h (0 Bft) N-NW 338 0 min 0,000 mm 2,0 UV-I 222 W/m 14,1 C 15,4 C 0,0 km/h (0 Bft) 0,00 %
04.09.2015 11:01 15,4 C 92 % 1017,4 hPa 0,0 l/m 2,9 km/h (1 Bft) NW 316 0 min 0,000 mm 2,0 UV-I 261 W/m 14,1 C 15,4 C 4,0 km/h (1 Bft) 0,00 %
04.09.2015 11:06 15,6 C 91 % 1017,3 hPa 0,0 l/m 0,0 km/h (0 Bft) NO 56 5 min 0,000 mm 2,0 UV-I 500 W/m 14,1 C 15,6 C 0,0 km/h (0 Bft) 0,00 %
04.09.2015 11:11 16,1 C 90 % 1017,2 hPa 0,0 l/m 0,4 km/h (0 Bft) S-SW 193 5 min 0,000 mm 2,0 UV-I 512 W/m 14,5 C 16,1 C 4,0 km/h (1 Bft) 0,00 %
04.09.2015 11:16 16,8 C 91 % 1017,3 hPa 0,0 l/m 2,2 km/h (1 Bft) W 273 5 min 0,000 mm 2,0 UV-I 546 W/m 15,3 C 16,8 C 4,0 km/h (1 Bft) 0,00 %
04.09.2015 11:21 17,6 C 88 % 1017,0 hPa 0,0 l/m 0,0 km/h (0 Bft) O 87 5 min 0,000 mm 2,0 UV-I 595 W/m 15,6 C 17,6 C 0,0 km/h (0 Bft) 0,00 %
04.09.2015 11:26 18,2 C 87 % 1017,1 hPa 0,0 l/m 0,0 km/h (0 Bft) W-NW 301 5 min 0,000 mm 3,0 UV-I 691 W/m 16,0 C 18,2 C 0,0 km/h (0 Bft) 0,00 %
04.09.2015 11:31 18,8 C 83 % 1017,1 hPa 0,0 l/m 5,4 km/h (1 Bft) NW 312 5 min 0,000 mm 3,0 UV-I 665 W/m 15,8 C 18,8 C 7,9 km/h (2 Bft) 0,00 %
04.09.2015 11:36 19,2 C 84 % 1017,0 hPa 0,0 l/m 0,0 km/h (0 Bft) O-NO 68 5 min 0,000 mm 3,0 UV-I 603 W/m 16,4 C 19,2 C 0,0 km/h (0 Bft) 0,00 %
04.09.2015 11:41 19,2 C 83 % 1016,9 hPa 0,0 l/m 0,0 km/h (0 Bft) NO 51 5 min 0,000 mm 3,0 UV-I 608 W/m 16,2 C 19,2 C 0,0 km/h (0 Bft) 0,00 %
04.09.2015 11:46 19,2 C 83 % 1016,9 hPa 0,0 l/m 0,0 km/h (0 Bft) NO 36 5 min 0,000 mm 3,0 UV-I 655 W/m 16,2 C 19,2 C 0,0 km/h (0 Bft) 0,00 %
04.09.2015 11:51 19,3 C 83 % 1017,0 hPa 0,0 l/m 0,0 km/h (0 Bft) O 93 5 min 0,000 mm 3,0 UV-I 708 W/m 16,3 C 19,3 C 0,0 km/h (0 Bft) 0,00 %
04.09.2015 11:56 19,6 C 83 % 1016,6 hPa 0,0 l/m 0,0 km/h (0 Bft) N 357 5 min 0,000 mm 3,0 UV-I 737 W/m 16,6 C 19,6 C 0,0 km/h (0 Bft) 0,00 %
04.09.2015 12:01 19,8 C 80 % 1016,6 hPa 0,0 l/m 0,0 km/h (0 Bft) NO 51 0 min 0,000 mm 2,0 UV-I 360 W/m 16,2 C 19,8 C 0,0 km/h (0 Bft) 0,00 %
04.09.2015 12:06 19,7 C 81 % 1016,5 hPa 0,0 l/m 0,0 km/h (0 Bft) N-NO 23 5 min 0,000 mm 3,0 UV-I 694 W/m 16,3 C 19,7 C 0,0 km/h (0 Bft) 0,00 %
04.09.2015 12:11 19,6 C 82 % 1016,5 hPa 0,0 l/m 0,4 km/h (0 Bft) O 92 5 min 0,000 mm 3,0 UV-I 714 W/m 16,4 C 19,6 C 4,0 km/h (1 Bft) 0,00 %
04.09.2015 12:16 19,7 C 81 % 1016,5 hPa 0,0 l/m 0,0 km/h (0 Bft) O-NO 61 5 min 0,000 mm 3,0 UV-I 714 W/m 16,3 C 19,7 C 0,0 km/h (0 Bft) 0,00 %
04.09.2015 12:21 19,9 C 81 % 1016,6 hPa 0,0 l/m 0,4 km/h (0 Bft) O 87 5 min 0,000 mm 3,0 UV-I 746 W/m 16,5 C 19,9 C 4,0 km/h (1 Bft) 0,00 %
04.09.2015 12:26 19,9 C 81 % 1016,4 hPa 0,0 l/m 0,4 km/h (0 Bft) O-NO 58 5 min 0,000 mm 3,0 UV-I 763 W/m 16,5 C 19,9 C 4,0 km/h (1 Bft) 0,00 %
04.09.2015 12:31 19,9 C 79 % 1016,3 hPa 0,0 l/m 0,0 km/h (0 Bft) NO 44 5 min 0,000 mm 3,0 UV-I 781 W/m 16,1 C 19,9 C 0,0 km/h (0 Bft) 0,00 %
04.09.2015 12:36 20,0 C 79 % 1016,2 hPa 0,0 l/m 0,0 km/h (0 Bft) NO 49 5 min 0,000 mm 3,0 UV-I 742 W/m 16,2 C 20,0 C 0,0 km/h (0 Bft) 0,00 %
04.09.2015 12:41 20,1 C 79 % 1016,2 hPa 0,0 l/m 5,8 km/h (2 Bft) N-NW 338 5 min 0,000 mm 3,0 UV-I 812 W/m 16,3 C 20,1 C 7,9 km/h (2 Bft) 0,00 %
04.09.2015 12:46 20,1 C 79 % 1016,3 hPa 0,0 l/m 0,0 km/h (0 Bft) N-NW 339 5 min 0,000 mm 3,0 UV-I 854 W/m 16,3 C 20,1 C 0,0 km/h (0 Bft) 0,00 %
04.09.2015 12:51 20,2 C 79 % 1016,3 hPa 0,0 l/m 2,2 km/h (1 Bft) W-NW 283 5 min 0,000 mm 3,0 UV-I 866 W/m 16,4 C 20,2 C 4,0 km/h (1 Bft) 0,00 %
04.09.2015 12:56 20,4 C 79 % 1016,2 hPa 0,0 l/m 0,7 km/h (0 Bft) W-NW 284 5 min 0,000 mm 3,0 UV-I 899 W/m 16,6 C 20,4 C 4,0 km/h (1 Bft) 0,00 %
04.09.2015 13:01 20,7 C 77 % 1016,3 hPa 0,0 l/m 0,0 km/h (0 Bft) NO 53 0 min 0,000 mm 2,0 UV-I 336 W/m 16,5 C 20,7 C 0,0 km/h (0 Bft) 0,00 %
04.09.2015 13:06 20,7 C 76 % 1016,3 hPa 0,0 l/m 0,4 km/h (0 Bft) NW 323 0 min 0,000 mm 2,0 UV-I 354 W/m 16,3 C 20,7 C 4,0 km/h (1 Bft) 0,00 %
04.09.2015 13:11 20,4 C 77 % 1016,2 hPa 0,0 l/m 0,0 km/h (0 Bft) NO 51 0 min 0,000 mm 2,0 UV-I 328 W/m 16,2 C 20,4 C 0,0 km/h (0 Bft) 0,00 %
04.09.2015 13:16 20,2 C 74 % 1016,2 hPa 0,0 l/m 0,4 km/h (0 Bft) N-NO 24 5 min 0,000 mm 4,0 UV-I 977 W/m 15,4 C 20,2 C 4,0 km/h (1 Bft) 0,00 %
04.09.2015 13:21 20,2 C 72 % 1016,3 hPa 0,0 l/m 0,4 km/h (0 Bft) O 79 5 min 0,000 mm 2,0 UV-I 441 W/m 15,0 C 20,2 C 4,0 km/h (1 Bft) 0,00 %
04.09.2015 13:26 20,4 C 73 % 1016,1 hPa 0,0 l/m 0,0 km/h (0 Bft) N-NW 348 0 min 0,000 mm 2,0 UV-I 383 W/m 15,4 C 20,4 C 0,0 km/h (0 Bft) 0,00 %
04.09.2015 13:31 20,7 C 70 % 1016,1 hPa 0,0 l/m 0,0 km/h (0 Bft) NO 44 0 min 0,000 mm 2,0 UV-I 387 W/m 15,0 C 20,7 C 0,0 km/h (0 Bft) 0,00 %
04.09.2015 13:36 20,8 C 67 % 1016,1 hPa 0,0 l/m 0,0 km/h (0 Bft) O-NO 58 5 min 0,000 mm 2,0 UV-I 545 W/m 14,4 C 20,8 C 0,0 km/h (0 Bft) 0,00 %
04.09.2015 13:41 20,7 C 65 % 1016,0 hPa 0,0 l/m 2,2 km/h (1 Bft) W 276 5 min 0,000 mm 2,0 UV-I 444 W/m 13,9 C 20,7 C 4,0 km/h (1 Bft) 0,00 %
04.09.2015 13:46 20,5 C 67 % 1016,1 hPa 0,0 l/m 1,8 km/h (1 Bft) W-NW 299 0 min 0,000 mm 2,0 UV-I 348 W/m 14,2 C 20,5 C 4,0 km/h (1 Bft) 0,00 %
04.09.2015 13:51 20,4 C 66 % 1016,1 hPa 0,0 l/m 0,4 km/h (0 Bft) SO 146 0 min 0,000 mm 1,0 UV-I 271 W/m 13,8 C 20,4 C 4,0 km/h (1 Bft) 0,00 %
04.09.2015 13:56 20,3 C 64 % 1016,1 hPa 0,0 l/m 1,8 km/h (1 Bft) N-NW 332 0 min 0,000 mm 1,0 UV-I 231 W/m 13,3 C 20,3 C 4,0 km/h (1 Bft) 0,00 %
04.09.2015 14:01 20,0 C 63 % 1016,0 hPa 0,0 l/m 0,0 km/h (0 Bft) O-NO 63 0 min 0,000 mm 1,0 UV-I 253 W/m 12,7 C 20,0 C 0,0 km/h (0 Bft) 0,00 %
04.09.2015 14:06 19,7 C 56 % 1015,9 hPa 0,0 l/m 0,0 km/h (0 Bft) O-NO 78 0 min 0,000 mm 1,0 UV-I 292 W/m 10,7 C 19,7 C 0,0 km/h (0 Bft) 0,00 %
04.09.2015 14:11 19,7 C 56 % 1015,9 hPa 0,0 l/m 0,0 km/h (0 Bft) N 355 0 min 0,000 mm 2,0 UV-I 319 W/m 10,7 C 19,7 C 0,0 km/h (0 Bft) 0,00 %
04.09.2015 14:16 19,8 C 58 % 1015,7 hPa 0,0 l/m 0,0 km/h (0 Bft) O-NO 71 0 min 0,000 mm 2,0 UV-I 389 W/m 11,3 C 19,8 C 0,0 km/h (0 Bft) 0,00 %
04.09.2015 14:21 19,8 C 53 % 1015,9 hPa 0,0 l/m 0,0 km/h (0 Bft) NO 55 5 min 0,000 mm 2,0 UV-I 502 W/m 9,9 C 19,8 C 0,0 km/h (0 Bft) 0,00 %
04.09.2015 14:26 20,1 C 53 % 1015,7 hPa 0,0 l/m 0,4 km/h (0 Bft) NO 54 5 min 0,000 mm 3,0 UV-I 944 W/m 10,2 C 20,1 C 4,0 km/h (1 Bft) 0,00 %
04.09.2015 14:31 20,5 C 49 % 1015,6 hPa 0,0 l/m 0,0 km/h (0 Bft) N-NO 14 5 min 0,000 mm 3,0 UV-I 724 W/m 9,4 C 20,5 C 0,0 km/h (0 Bft) 0,00 %
04.09.2015 14:36 20,9 C 49 % 1015,7 hPa 0,0 l/m 1,4 km/h (1 Bft) O-NO 59 5 min 0,000 mm 3,0 UV-I 973 W/m 9,8 C 20,9 C 4,0 km/h (1 Bft) 0,00 %
04.09.2015 14:41 21,2 C 50 % 1015,7 hPa 0,0 l/m 0,0 km/h (0 Bft) O-NO 58 5 min 0,000 mm 3,0 UV-I 993 W/m 10,4 C 21,2 C 0,0 km/h (0 Bft) 0,00 %
04.09.2015 14:46 21,5 C 44 % 1015,4 hPa 0,0 l/m 0,0 km/h (0 Bft) O-NO 63 5 min 0,000 mm 3,0 UV-I 872 W/m 8,7 C 21,5 C 0,0 km/h (0 Bft) 0,00 %
04.09.2015 14:51 21,7 C 48 % 1015,4 hPa 0,0 l/m 0,0 km/h (0 Bft) NO 47 5 min 0,000 mm 2,0 UV-I 749 W/m 10,2 C 21,7 C 0,0 km/h (0 Bft) 0,00 %
04.09.2015 14:56 21,7 C 47 % 1015,3 hPa 0,0 l/m 0,0 km/h (0 Bft) N-NW 344 5 min 0,000 mm 2,0 UV-I 796 W/m 9,9 C 21,7 C 0,0 km/h (0 Bft) 0,00 %
04.09.2015 15:01 21,8 C 48 % 1015,1 hPa 0,0 l/m 0,0 km/h (0 Bft) N-NO 25 5 min 0,000 mm 2,0 UV-I 936 W/m 10,3 C 21,8 C 0,0 km/h (0 Bft) 0,00 %
04.09.2015 15:06 22,0 C 47 % 1015,1 hPa 0,0 l/m 0,0 km/h (0 Bft) O-NO 74 0 min 0,000 mm 2,0 UV-I 338 W/m 10,2 C 22,0 C 0,0 km/h (0 Bft) 0,00 %
04.09.2015 15:11 22,1 C 47 % 1015,1 hPa 0,0 l/m 0,0 km/h (0 Bft) SW 234 5 min 0,000 mm 2,0 UV-I 422 W/m 10,3 C 22,1 C 0,0 km/h (0 Bft) 0,00 %
04.09.2015 15:16 22,0 C 48 % 1015,0 hPa 0,0 l/m 0,0 km/h (0 Bft) NO 35 5 min 0,000 mm 2,0 UV-I 1044 W/m 10,5 C 22,0 C 0,0 km/h (0 Bft) 0,00 %
04.09.2015 15:21 22,0 C 47 % 1014,9 hPa 0,0 l/m 0,7 km/h (0 Bft) N-NO 24 0 min 0,000 mm 1,0 UV-I 347 W/m 10,2 C 22,0 C 4,0 km/h (1 Bft) 0,00 %
04.09.2015 15:26 21,9 C 48 % 1014,9 hPa 0,0 l/m 0,7 km/h (0 Bft) NO 48 0 min 0,000 mm 1,0 UV-I 315 W/m 10,4 C 21,9 C 4,0 km/h (1 Bft) 0,00 %
04.09.2015 15:31 21,6 C 49 % 1014,8 hPa 0,0 l/m 0,0 km/h (0 Bft) N-NO 30 0 min 0,000 mm 1,0 UV-I 216 W/m 10,4 C 21,6 C 0,0 km/h (0 Bft) 0,00 %
04.09.2015 15:36 21,1 C 50 % 1015,1 hPa 0,0 l/m 0,0 km/h (0 Bft) NO 40 0 min 0,000 mm 1,0 UV-I 250 W/m 10,3 C 21,1 C 0,0 km/h (0 Bft) 0,00 %
04.09.2015 15:41 20,8 C 52 % 1015,1 hPa 0,0 l/m 0,0 km/h (0 Bft) O-NO 63 0 min 0,000 mm 1,0 UV-I 254 W/m 10,6 C 20,8 C 0,0 km/h (0 Bft) 0,00 %
04.09.2015 15:46 20,7 C 53 % 1015,1 hPa 0,0 l/m 0,0 km/h (0 Bft) N 353 0 min 0,000 mm 1,0 UV-I 213 W/m 10,8 C 20,7 C 0,0 km/h (0 Bft) 0,00 %
04.09.2015 15:51 20,7 C 52 % 1015,0 hPa 0,0 l/m 0,0 km/h (0 Bft) NW 314 0 min 0,000 mm 1,0 UV-I 192 W/m 10,5 C 20,7 C 0,0 km/h (0 Bft) 0,00 %
04.09.2015 15:56 20,6 C 51 % 1015,0 hPa 0,0 l/m 0,0 km/h (0 Bft) NO 50 0 min 0,000 mm 1,0 UV-I 179 W/m 10,1 C 20,6 C 0,0 km/h (0 Bft) 0,00 %
04.09.2015 16:01 20,5 C 53 % 1014,8 hPa 0,0 l/m 0,0 km/h (0 Bft) NO 50 0 min 0,000 mm 1,0 UV-I 184 W/m 10,6 C 20,5 C 0,0 km/h (0 Bft) 0,00 %
04.09.2015 16:06 20,4 C 53 % 1015,1 hPa 0,0 l/m 1,8 km/h (1 Bft) W-SW 256 0 min 0,000 mm 1,0 UV-I 179 W/m 10,5 C 20,4 C 4,0 km/h (1 Bft) 0,00 %
04.09.2015 16:11 20,1 C 52 % 1015,1 hPa 0,0 l/m 0,0 km/h (0 Bft) NO 39 0 min 0,000 mm 1,0 UV-I 198 W/m 9,9 C 20,1 C 0,0 km/h (0 Bft) 0,00 %
04.09.2015 16:16 20,0 C 52 % 1014,8 hPa 0,0 l/m 0,0 km/h (0 Bft) NO 36 0 min 0,000 mm 1,0 UV-I 282 W/m 9,8 C 20,0 C 0,0 km/h (0 Bft) 0,00 %
04.09.2015 16:21 20,2 C 51 % 1014,7 hPa 0,0 l/m 0,0 km/h (0 Bft) NO 44 5 min 0,000 mm 1,0 UV-I 296 W/m 9,7 C 20,2 C 0,0 km/h (0 Bft) 0,00 %
04.09.2015 16:26 20,4 C 52 % 1014,5 hPa 0,0 l/m 0,0 km/h (0 Bft) NO 53 5 min 0,000 mm 1,0 UV-I 306 W/m 10,2 C 20,4 C 0,0 km/h (0 Bft) 0,00 %
04.09.2015 16:31 20,6 C 51 % 1014,5 hPa 0,0 l/m 0,0 km/h (0 Bft) O 84 0 min 0,000 mm 1,0 UV-I 255 W/m 10,1 C 20,6 C 0,0 km/h (0 Bft) 0,00 %
04.09.2015 16:36 20,6 C 50 % 1014,5 hPa 0,0 l/m 0,0 km/h (0 Bft) N-NO 13 5 min 0,000 mm 1,0 UV-I 332 W/m 9,8 C 20,6 C 0,0 km/h (0 Bft) 0,00 %
04.09.2015 16:41 20,6 C 50 % 1014,5 hPa 0,0 l/m 0,0 km/h (0 Bft) NO 51 5 min 0,000 mm 1,0 UV-I 278 W/m 9,8 C 20,6 C 0,0 km/h (0 Bft) 0,00 %
04.09.2015 16:46 20,7 C 50 % 1014,5 hPa 0,0 l/m 1,4 km/h (1 Bft) N-NW 339 0 min 0,000 mm 1,0 UV-I 227 W/m 9,9 C 20,7 C 4,0 km/h (1 Bft) 0,00 %
04.09.2015 16:51 20,8 C 49 % 1014,3 hPa 0,0 l/m 0,0 km/h (0 Bft) N-NW 344 0 min 0,000 mm 1,0 UV-I 211 W/m 9,7 C 20,8 C 0,0 km/h (0 Bft) 0,00 %
04.09.2015 16:56 20,6 C 50 % 1014,3 hPa 0,0 l/m 0,0 km/h (0 Bft) NO 34 0 min 0,000 mm 1,0 UV-I 182 W/m 9,8 C 20,6 C 0,0 km/h (0 Bft) 0,00 %
04.09.2015 17:01 20,3 C 51 % 1014,2 hPa 0,0 l/m 0,0 km/h (0 Bft) N-NO 31 0 min 0,000 mm 1,0 UV-I 175 W/m 9,8 C 20,3 C 0,0 km/h (0 Bft) 0,00 %
04.09.2015 17:06 20,3 C 50 % 1014,1 hPa 0,0 l/m 0,0 km/h (0 Bft) NO 43 0 min 0,000 mm 1,0 UV-I 158 W/m 9,5 C 20,3 C 0,0 km/h (0 Bft) 0,00 %
04.09.2015 17:11 20,3 C 51 % 1014,2 hPa 0,0 l/m 0,0 km/h (0 Bft) NO 47 0 min 0,000 mm 1,0 UV-I 156 W/m 9,8 C 20,3 C 0,0 km/h (0 Bft) 0,00 %
04.09.2015 17:16 20,2 C 52 % 1014,2 hPa 0,0 l/m 0,0 km/h (0 Bft) N-NO 31 0 min 0,000 mm 1,0 UV-I 160 W/m 10,0 C 20,2 C 0,0 km/h (0 Bft) 0,00 %
04.09.2015 17:21 20,1 C 52 % 1014,3 hPa 0,0 l/m 0,0 km/h (0 Bft) N-NO 13 0 min 0,000 mm 1,0 UV-I 165 W/m 9,9 C 20,1 C 0,0 km/h (0 Bft) 0,00 %
04.09.2015 17:26 20,2 C 53 % 1014,1 hPa 0,0 l/m 0,0 km/h (0 Bft) NO 37 0 min 0,000 mm 1,0 UV-I 115 W/m 10,3 C 20,2 C 0,0 km/h (0 Bft) 0,00 %
04.09.2015 17:31 20,3 C 50 % 1014,2 hPa 0,0 l/m 0,0 km/h (0 Bft) NO 43 0 min 0,000 mm 1,0 UV-I 159 W/m 9,5 C 20,3 C 0,0 km/h (0 Bft) 0,00 %
04.09.2015 17:36 20,2 C 50 % 1014,1 hPa 0,0 l/m 0,0 km/h (0 Bft) NO 50 5 min 0,000 mm 1,0 UV-I 210 W/m 9,4 C 20,2 C 0,0 km/h (0 Bft) 0,00 %
04.09.2015 17:41 20,2 C 50 % 1014,2 hPa 0,0 l/m 0,0 km/h (0 Bft) NO 46 5 min 0,000 mm 1,0 UV-I 182 W/m 9,4 C 20,2 C 0,0 km/h (0 Bft) 0,00 %
04.09.2015 17:46 20,3 C 53 % 1014,2 hPa 0,0 l/m 0,0 km/h (0 Bft) NO 43 0 min 0,000 mm 1,0 UV-I 164 W/m 10,4 C 20,3 C 0,0 km/h (0 Bft) 0,00 %
04.09.2015 17:51 20,3 C 54 % 1014,2 hPa 0,0 l/m 0,0 km/h (0 Bft) N 350 5 min 0,000 mm 1,0 UV-I 199 W/m 10,7 C 20,3 C 0,0 km/h (0 Bft) 0,00 %
04.09.2015 17:56 20,3 C 52 % 1014,1 hPa 0,0 l/m 0,0 km/h (0 Bft) NO 34 5 min 0,000 mm 1,0 UV-I 169 W/m 10,1 C 20,3 C 0,0 km/h (0 Bft) 0,00 %
04.09.2015 18:01 20,3 C 52 % 1014,2 hPa 0,0 l/m 0,0 km/h (0 Bft) NO 46 0 min 0,000 mm 0,0 UV-I 90 W/m 10,1 C 20,3 C 0,0 km/h (0 Bft) 0,00 %
04.09.2015 18:06 20,2 C 52 % 1014,0 hPa 0,0 l/m 0,0 km/h (0 Bft) N-NO 32 0 min 0,000 mm 0,0 UV-I 86 W/m 10,0 C 20,2 C 0,0 km/h (0 Bft) 0,00 %
04.09.2015 18:11 19,9 C 54 % 1014,2 hPa 0,0 l/m 0,0 km/h (0 Bft) NO 45 0 min 0,000 mm 0,0 UV-I 98 W/m 10,3 C 19,9 C 0,0 km/h (0 Bft) 0,00 %
04.09.2015 18:16 19,7 C 57 % 1014,2 hPa 0,0 l/m 0,0 km/h (0 Bft) NO 44 0 min 0,000 mm 0,0 UV-I 103 W/m 10,9 C 19,7 C 0,0 km/h (0 Bft) 0,00 %
04.09.2015 18:21 19,6 C 57 % 1014,2 hPa 0,0 l/m 0,0 km/h (0 Bft) N-NO 26 0 min 0,000 mm 0,0 UV-I 76 W/m 10,8 C 19,6 C 0,0 km/h (0 Bft) 0,00 %
04.09.2015 18:26 19,6 C 59 % 1014,1 hPa 0,0 l/m 0,0 km/h (0 Bft) NO 40 0 min 0,000 mm 0,0 UV-I 71 W/m 11,4 C 19,6 C 0,0 km/h (0 Bft) 0,00 %
04.09.2015 18:31 19,4 C 60 % 1014,1 hPa 0,0 l/m 0,0 km/h (0 Bft) N-NW 342 0 min 0,000 mm 0,0 UV-I 68 W/m 11,4 C 19,4 C 0,0 km/h (0 Bft) 0,00 %
04.09.2015 18:36 19,3 C 60 % 1014,2 hPa 0,0 l/m 0,0 km/h (0 Bft) NW 317 0 min 0,000 mm 0,0 UV-I 68 W/m 11,3 C 19,3 C 0,0 km/h (0 Bft) 0,00 %
04.09.2015 18:41 19,2 C 59 % 1014,1 hPa 0,0 l/m 0,0 km/h (0 Bft) NO 45 0 min 0,000 mm 0,0 UV-I 56 W/m 11,0 C 19,2 C 0,0 km/h (0 Bft) 0,00 %
04.09.2015 18:46 19,1 C 64 % 1014,2 hPa 0,0 l/m 0,0 km/h (0 Bft) NO 54 0 min 0,000 mm 0,0 UV-I 46 W/m 12,1 C 19,1 C 0,0 km/h (0 Bft) 0,00 %
04.09.2015 18:51 19,0 C 66 % 1014,1 hPa 0,0 l/m 0,0 km/h (0 Bft) O-NO 69 0 min 0,000 mm 0,0 UV-I 37 W/m 12,5 C 19,0 C 0,0 km/h (0 Bft) 0,00 %
04.09.2015 18:56 18,9 C 68 % 1014,3 hPa 0,0 l/m 0,0 km/h (0 Bft) NO 45 0 min 0,000 mm 0,0 UV-I 30 W/m 12,9 C 18,9 C 0,0 km/h (0 Bft) 0,00 %
04.09.2015 19:01 18,7 C 68 % 1014,1 hPa 0,0 l/m 0,0 km/h (0 Bft) NO 53 0 min 0,000 mm 0,0 UV-I 44 W/m 12,7 C 18,7 C 0,0 km/h (0 Bft) 0,00 %
04.09.2015 19:07 18,5 C 69 % 1014,1 hPa 0,0 l/m 0,0 km/h (0 Bft) O-NO 63 0 min 0,000 mm 0,0 UV-I 40 W/m 12,7 C 18,5 C 0,0 km/h (0 Bft) 0,00 %
04.09.2015 19:12 18,4 C 71 % 1013,8 hPa 0,0 l/m 0,0 km/h (0 Bft) NO 53 0 min 0,000 mm 0,0 UV-I 29 W/m 13,0 C 18,4 C 0,0 km/h (0 Bft) 0,00 %
04.09.2015 19:17 18,3 C 71 % 1014,2 hPa 0,0 l/m 0,0 km/h (0 Bft) NO 38 0 min 0,000 mm 0,0 UV-I 22 W/m 12,9 C 18,3 C 0,0 km/h (0 Bft) 0,00 %
04.09.2015 19:22 18,1 C 73 % 1014,1 hPa 0,0 l/m 0,0 km/h (0 Bft) NO 39 0 min 0,000 mm 0,0 UV-I 11 W/m 13,2 C 18,1 C 0,0 km/h (0 Bft) 0,00 %
04.09.2015 19:27 17,8 C 72 % 1014,2 hPa 0,0 l/m 0,0 km/h (0 Bft) NO 39 0 min 0,000 mm 0,0 UV-I 6 W/m 12,7 C 17,8 C 0,0 km/h (0 Bft) 0,00 %
04.09.2015 19:32 17,6 C 72 % 1013,8 hPa 0,0 l/m 0,0 km/h (0 Bft) NO 54 0 min 0,000 mm 0,0 UV-I 1 W/m 12,5 C 17,6 C 0,0 km/h (0 Bft) 0,00 %
04.09.2015 19:37 17,5 C 74 % 1013,9 hPa 0,0 l/m 0,0 km/h (0 Bft) NO 52 0 min 0,000 mm 0,0 UV-I 0 W/m 12,8 C 17,5 C 0,0 km/h (0 Bft) 0,00 %
04.09.2015 19:42 17,3 C 75 % 1013,9 hPa 0,0 l/m 0,0 km/h (0 Bft) O-NO 59 0 min 0,000 mm 0,0 UV-I 0 W/m 12,8 C 17,3 C 0,0 km/h (0 Bft) 0,00 %
04.09.2015 19:47 17,2 C 77 % 1013,8 hPa 0,0 l/m 0,0 km/h (0 Bft) O-NO 60 0 min 0,000 mm 0,0 UV-I 0 W/m 13,1 C 17,2 C 0,0 km/h (0 Bft) 0,00 %
04.09.2015 19:52 17,1 C 77 % 1014,0 hPa 0,0 l/m 0,0 km/h (0 Bft) NO 54 0 min 0,000 mm 0,0 UV-I 0 W/m 13,0 C 17,1 C 0,0 km/h (0 Bft) 0,00 %
04.09.2015 19:57 17,1 C 78 % 1013,9 hPa 0,0 l/m 0,0 km/h (0 Bft) NO 50 0 min 0,000 mm 0,0 UV-I 0 W/m 13,2 C 17,1 C 0,0 km/h (0 Bft) 0,00 %
04.09.2015 20:02 17,0 C 78 % 1013,8 hPa 0,0 l/m 0,0 km/h (0 Bft) NO 50 0 min 0,000 mm 0,0 UV-I 0 W/m 13,1 C 17,0 C 0,0 km/h (0 Bft) 0,00 %
04.09.2015 20:07 16,9 C 79 % 1014,0 hPa 0,0 l/m 0,0 km/h (0 Bft) NO 51 0 min 0,000 mm 0,0 UV-I 0 W/m 13,2 C 16,9 C 0,0 km/h (0 Bft) 0,00 %
04.09.2015 20:12 16,8 C 80 % 1014,0 hPa 0,0 l/m 0,0 km/h (0 Bft) NO 52 0 min 0,000 mm 0,0 UV-I 0 W/m 13,3 C 16,8 C 0,0 km/h (0 Bft) 0,00 %
04.09.2015 20:17 16,7 C 81 % 1013,9 hPa 0,0 l/m 0,0 km/h (0 Bft) NO 52 0 min 0,000 mm 0,0 UV-I 0 W/m 13,4 C 16,7 C 0,0 km/h (0 Bft) 0,00 %
04.09.2015 20:22 16,6 C 81 % 1013,8 hPa 0,0 l/m 0,0 km/h (0 Bft) O-NO 62 0 min 0,000 mm 0,0 UV-I 0 W/m 13,3 C 16,6 C 0,0 km/h (0 Bft) 0,00 %
04.09.2015 20:27 16,4 C 81 % 1013,9 hPa 0,0 l/m 0,0 km/h (0 Bft) O-NO 66 0 min 0,000 mm 0,0 UV-I 0 W/m 13,1 C 16,4 C 0,0 km/h (0 Bft) 0,00 %
04.09.2015 20:32 16,3 C 81 % 1014,1 hPa 0,0 l/m 0,0 km/h (0 Bft) O-NO 65 0 min 0,000 mm 0,0 UV-I 0 W/m 13,0 C 16,3 C 0,0 km/h (0 Bft) 0,00 %
04.09.2015 20:37 16,3 C 81 % 1013,9 hPa 0,0 l/m 0,0 km/h (0 Bft) O-NO 63 0 min 0,000 mm 0,0 UV-I 0 W/m 13,0 C 16,3 C 0,0 km/h (0 Bft) 0,00 %
04.09.2015 20:42 16,2 C 81 % 1013,9 hPa 0,0 l/m 0,0 km/h (0 Bft) O-NO 62 0 min 0,000 mm 0,0 UV-I 0 W/m 12,9 C 16,2 C 0,0 km/h (0 Bft) 0,00 %
04.09.2015 20:47 16,2 C 80 % 1014,2 hPa 0,0 l/m 0,0 km/h (0 Bft) O-NO 62 0 min 0,000 mm 0,0 UV-I 0 W/m 12,7 C 16,2 C 0,0 km/h (0 Bft) 0,00 %
04.09.2015 20:52 16,1 C 82 % 1013,9 hPa 0,0 l/m 0,0 km/h (0 Bft) O-NO 62 0 min 0,000 mm 0,0 UV-I 0 W/m 13,0 C 16,1 C 0,0 km/h (0 Bft) 0,00 %
04.09.2015 20:57 16,0 C 82 % 1014,0 hPa 0,0 l/m 0,0 km/h (0 Bft) O-NO 62 0 min 0,000 mm 0,0 UV-I 0 W/m 12,9 C 16,0 C 0,0 km/h (0 Bft) 0,00 %
04.09.2015 21:02 15,9 C 83 % 1014,0 hPa 0,0 l/m 0,0 km/h (0 Bft) O-NO 62 0 min 0,000 mm 0,0 UV-I 0 W/m 13,0 C 15,9 C 0,0 km/h (0 Bft) 0,00 %
04.09.2015 21:07 15,8 C 84 % 1013,9 hPa 0,0 l/m 0,0 km/h (0 Bft) O-NO 62 0 min 0,000 mm 0,0 UV-I 0 W/m 13,1 C 15,8 C 0,0 km/h (0 Bft) 0,00 %
04.09.2015 21:12 15,7 C 84 % 1014,0 hPa 0,0 l/m 0,0 km/h (0 Bft) O-NO 61 0 min 0,000 mm 0,0 UV-I 0 W/m 13,0 C 15,7 C 0,0 km/h (0 Bft) 0,00 %
04.09.2015 21:17 15,6 C 85 % 1014,1 hPa 0,0 l/m 0,0 km/h (0 Bft) O-NO 59 0 min 0,000 mm 0,0 UV-I 0 W/m 13,1 C 15,6 C 0,0 km/h (0 Bft) 0,00 %
04.09.2015 21:22 15,6 C 84 % 1013,9 hPa 0,0 l/m 0,0 km/h (0 Bft) O-NO 59 0 min 0,000 mm 0,0 UV-I 0 W/m 12,9 C 15,6 C 0,0 km/h (0 Bft) 0,00 %
04.09.2015 21:27 15,5 C 84 % 1013,8 hPa 0,0 l/m 0,0 km/h (0 Bft) NO 56 0 min 0,000 mm 0,0 UV-I 0 W/m 12,8 C 15,5 C 0,0 km/h (0 Bft) 0,00 %
04.09.2015 21:32 15,5 C 85 % 1014,0 hPa 0,0 l/m 0,0 km/h (0 Bft) N 355 0 min 0,000 mm 0,0 UV-I 0 W/m 13,0 C 15,5 C 0,0 km/h (0 Bft) 0,00 %
04.09.2015 21:37 15,5 C 85 % 1014,2 hPa 0,0 l/m 0,0 km/h (0 Bft) NO 56 0 min 0,000 mm 0,0 UV-I 0 W/m 13,0 C 15,5 C 0,0 km/h (0 Bft) 0,00 %
04.09.2015 21:42 15,6 C 86 % 1014,0 hPa 0,0 l/m 0,0 km/h (0 Bft) NO 45 0 min 0,000 mm 0,0 UV-I 0 W/m 13,3 C 15,6 C 0,0 km/h (0 Bft) 0,00 %
04.09.2015 21:47 15,6 C 85 % 1013,8 hPa 0,0 l/m 0,0 km/h (0 Bft) NO 43 0 min 0,000 mm 0,0 UV-I 0 W/m 13,1 C 15,6 C 0,0 km/h (0 Bft) 0,00 %
04.09.2015 21:52 15,7 C 85 % 1014,0 hPa 0,0 l/m 0,0 km/h (0 Bft) NO 43 0 min 0,000 mm 0,0 UV-I 0 W/m 13,2 C 15,7 C 0,0 km/h (0 Bft) 0,00 %
04.09.2015 21:57 15,7 C 85 % 1014,1 hPa 0,0 l/m 0,0 km/h (0 Bft) NO 43 0 min 0,000 mm 0,0 UV-I 0 W/m 13,2 C 15,7 C 0,0 km/h (0 Bft) 0,00 %
04.09.2015 22:02 15,7 C 86 % 1014,1 hPa 0,0 l/m 0,0 km/h (0 Bft) NO 44 0 min 0,000 mm 0,0 UV-I 0 W/m 13,4 C 15,7 C 0,0 km/h (0 Bft) 0,00 %
04.09.2015 22:07 15,7 C 86 % 1014,3 hPa 0,0 l/m 0,0 km/h (0 Bft) NO 44 0 min 0,000 mm 0,0 UV-I 0 W/m 13,4 C 15,7 C 0,0 km/h (0 Bft) 0,00 %
04.09.2015 22:12 15,7 C 86 % 1014,4 hPa 0,0 l/m 0,0 km/h (0 Bft) N 356 0 min 0,000 mm 0,0 UV-I 0 W/m 13,4 C 15,7 C 0,0 km/h (0 Bft) 0,00 %
04.09.2015 22:17 15,7 C 85 % 1014,4 hPa 0,0 l/m 0,0 km/h (0 Bft) NO 56 0 min 0,000 mm 0,0 UV-I 0 W/m 13,2 C 15,7 C 0,0 km/h (0 Bft) 0,00 %
04.09.2015 22:22 15,7 C 85 % 1014,4 hPa 0,0 l/m 0,0 km/h (0 Bft) NO 40 0 min 0,000 mm 0,0 UV-I 0 W/m 13,2 C 15,7 C 0,0 km/h (0 Bft) 0,00 %
04.09.2015 22:27 15,7 C 85 % 1014,5 hPa 0,0 l/m 0,0 km/h (0 Bft) NO 46 0 min 0,000 mm 0,0 UV-I 0 W/m 13,2 C 15,7 C 0,0 km/h (0 Bft) 0,00 %
04.09.2015 22:32 15,7 C 86 % 1014,4 hPa 0,0 l/m 0,0 km/h (0 Bft) NO 47 0 min 0,000 mm 0,0 UV-I 0 W/m 13,4 C 15,7 C 0,0 km/h (0 Bft) 0,00 %
04.09.2015 22:37 15,7 C 86 % 1014,3 hPa 0,0 l/m 0,0 km/h (0 Bft) NO 40 0 min 0,000 mm 0,0 UV-I 0 W/m 13,4 C 15,7 C 0,0 km/h (0 Bft) 0,00 %
04.09.2015 22:42 15,7 C 86 % 1013,9 hPa 0,0 l/m 0,0 km/h (0 Bft) NO 44 0 min 0,000 mm 0,0 UV-I 0 W/m 13,4 C 15,7 C 0,0 km/h (0 Bft) 0,00 %
04.09.2015 22:47 15,6 C 86 % 1014,2 hPa 0,0 l/m 0,0 km/h (0 Bft) NO 35 0 min 0,000 mm 0,0 UV-I 0 W/m 13,3 C 15,6 C 0,0 km/h (0 Bft) 0,00 %
04.09.2015 22:52 15,6 C 86 % 1014,2 hPa 0,0 l/m 4,3 km/h (1 Bft) NW 309 0 min 0,000 mm 0,0 UV-I 0 W/m 13,3 C 15,6 C 7,9 km/h (2 Bft) 0,00 %
04.09.2015 22:57 15,5 C 83 % 1014,4 hPa 0,0 l/m 0,0 km/h (0 Bft) O-SO 118 0 min 0,000 mm 0,0 UV-I 0 W/m 12,6 C 15,5 C 0,0 km/h (0 Bft) 0,00 %
04.09.2015 23:02 15,4 C 81 % 1014,1 hPa 0,0 l/m 0,4 km/h (0 Bft) S 180 0 min 0,000 mm 0,0 UV-I 0 W/m 12,2 C 15,4 C 4,0 km/h (1 Bft) 0,00 %
04.09.2015 23:07 15,4 C 79 % 1014,1 hPa 0,0 l/m 0,0 km/h (0 Bft) N-NW 344 0 min 0,000 mm 0,0 UV-I 0 W/m 11,8 C 15,4 C 0,0 km/h (0 Bft) 0,00 %
04.09.2015 23:12 15,4 C 80 % 1014,3 hPa 0,0 l/m 0,0 km/h (0 Bft) O-NO 60 0 min 0,000 mm 0,0 UV-I 0 W/m 12,0 C 15,4 C 0,0 km/h (0 Bft) 0,00 %
04.09.2015 23:17 15,3 C 80 % 1014,1 hPa 0,0 l/m 0,0 km/h (0 Bft) NO 47 0 min 0,000 mm 0,0 UV-I 0 W/m 11,9 C 15,3 C 0,0 km/h (0 Bft) 0,00 %
04.09.2015 23:22 15,2 C 79 % 1014,0 hPa 0,0 l/m 0,0 km/h (0 Bft) NO 39 0 min 0,000 mm 0,0 UV-I 0 W/m 11,6 C 15,2 C 0,0 km/h (0 Bft) 0,00 %
04.09.2015 23:27 15,1 C 79 % 1014,1 hPa 0,0 l/m 0,0 km/h (0 Bft) W-SW 249 0 min 0,000 mm 0,0 UV-I 0 W/m 11,5 C 15,1 C 0,0 km/h (0 Bft) 0,00 %
04.09.2015 23:32 15,1 C 80 % 1014,1 hPa 0,0 l/m 0,0 km/h (0 Bft) NO 50 0 min 0,000 mm 0,0 UV-I 0 W/m 11,7 C 15,1 C 0,0 km/h (0 Bft) 0,00 %
04.09.2015 23:37 15,1 C 80 % 1014,2 hPa 0,0 l/m 0,0 km/h (0 Bft) O-NO 60 0 min 0,000 mm 0,0 UV-I 0 W/m 11,7 C 15,1 C 0,0 km/h (0 Bft) 0,00 %
04.09.2015 23:42 15,1 C 81 % 1014,4 hPa 0,0 l/m 0,0 km/h (0 Bft) NO 45 0 min 0,000 mm 0,0 UV-I 0 W/m 11,9 C 15,1 C 0,0 km/h (0 Bft) 0,00 %
04.09.2015 23:47 15,1 C 81 % 1014,5 hPa 0,0 l/m 0,0 km/h (0 Bft) O 90 0 min 0,000 mm 0,0 UV-I 0 W/m 11,9 C 15,1 C 0,0 km/h (0 Bft) 0,00 %
04.09.2015 23:52 15,1 C 81 % 1014,4 hPa 0,0 l/m 0,0 km/h (0 Bft) NO 40 0 min 0,000 mm 0,0 UV-I 0 W/m 11,9 C 15,1 C 0,0 km/h (0 Bft) 0,00 %
04.09.2015 23:57 15,0 C 81 % 1014,5 hPa 0,0 l/m 0,0 km/h (0 Bft) O-NO 65 0 min 0,000 mm 0,0 UV-I 0 W/m 11,8 C 15,0 C 0,0 km/h (0 Bft) 0,00 %
_ Min-Zeit 05:21 14:46 19:12 - 00:10 - - - - - - 14:46 05:21 00:10 00:00
Minimum _ 11,5 C 44 % 1013,8 hPa - 0,0 km/h (0 Bft) - - - - - - 8,7 C 11,5 C 0,0 km/h (0 Bft) 0,00 %
_ Max-Zeit 15:11 00:00 11:01 01:45 12:41 - - 09:01 00:00 13:16 15:16 12:56 15:11 00:55 00:00
Maximum _ 22,1 C 99 % 1017,4 hPa 0,6 l/m 5,8 km/h
N-NW (2 Bft)
- - 5 min 0,000 mm 4,0 UV-I 1044 W/m 16,6 C 22,1 C 7,9 km/h
W-SW (2 Bft)
0,00 %
Durchschnitt _ 15,9 C 82 % 1015,4 hPa #6,6 l/m 0,4 km/h (0 Bft) W-SW - #4:15 h #0,000 mm 1,6 UV-I 311 W/m 12,4 C 15,9 C 0,9 km/h (0 Bft) 0,00 %